Location: Taukkyan
(23.1052°N, 94.0030°E)
Time: 11:38:48
(UTC+00:00)

Cosmos 1818 - Pass Details

Date: 06 July 2020
Orbit: 777 x 796 km, 65.0° (Epoch: 14 August)

Event Time Altitude Azimuth Distance (km) Brightness Sun altitude
Rises 13:24:41 0° 205° (SSW) 3,252 6.7 -11.2°
Reaches altitude 10° 13:27:05 10° 206° (SSW) 2,329 6.0 -11.7°
Maximum altitude 13:32:26 84° 294° (WNW) 793 3.6 -12.7°
Drops below altitude 10° 13:37:51 10° 23° (NNE) 2,350 6.1 -13.8°
Sets 13:40:17 0° 24° (NNE) 3,284 6.9 -14.2°
